Terminal Aerodrome Forecast
Issued by NWS

Current Version | Previous Version | Graphics & Text | Print | Product List | Glossary On
Versions: 1 2 3 4 5 6 7 8 9 10 11 12 13 14 15 16 17 18 19 20 21 22 23 24 25 26 27 28 29 30 31 32 33 34 35 36 37 38 39 40 41 42 43 44 45 46 47 48 49 50
000
FTUS41 KRNK 041758 AAA
TAFLWB
TAF AMD
KLWB 041758Z 0418/0518 00000KT 1/4SM -DZ FG OVC002
      TEMPO 0418/0420 3/4SM -DZ SCT008 OVC017
     FM042300 34002KT 4SM -RAPL BR OVC007
     FM050400 30004KT 2SM -SNPL BR OVC004
     FM050700 28002KT 1 1/2SM -SNPL BR OVC007
     FM050900 33004KT 1SM -SN BR OVC001
     FM051300 32004KT 1/2SM SN FG OVC003=

USA.gov is the U.S. government's official web portal to all federal, state and local government web resources and services.